Simultaneous Nadir Overpasses (SNOs) Predictions

Prediction of SNOs between TERRA and METOP-C Satellite Orbit:

Table of predicted SNOs for the next 14.0 days since TLE Epoch: 12/14/2024
Index Date (TERRA) Time (TERRA) Lat,Lon (TERRA) SZA (TERRA ) Date (METOP-C) Time (METOP-C) Lat,Lon (METOP-C) SZA (METOP-C ) Distance(km) Time Diff (sec)
1 12/16/2024 03:45:40 -51.77, -82.32 101.97 12/16/2024 03:44:59 -51.77, -82.31 101.92 0.96 41
2 12/16/2024 04:32:44 59.64, 89.52 84.65 12/16/2024 04:33:19 59.65, 89.54 84.63 1.43 35
3 12/18/2024 17:27:15 46.12,-109.63 73.58 12/18/2024 17:26:11 46.11,-109.64 73.66 1.24 64
4 12/18/2024 18:13:44 -56.39, 62.55 97.96 12/18/2024 18:13:55 -56.39, 62.56 97.96 0.98 11
5 12/18/2024 18:51:47 78.59, -3.17 115.01 12/18/2024 18:52:59 77.97, -6.03 114.53 94.66 72
6 12/21/2024 07:54:57 52.05, 35.38 78.55 12/21/2024 07:54:45 52.04, 35.37 78.57 0.97 12
7 12/21/2024 08:42:03 -60.05,-152.66 94.78 12/21/2024 08:43:07 -60.06,-152.65 94.82 0.63 64
8 12/23/2024 21:36:17 -47.53, 8.46 105.07 12/23/2024 21:35:42 -47.52, 8.45 105.02 0.79 35
9 12/23/2024 22:22:56 56.88,-179.60 82.61 12/23/2024 22:23:37 56.88,-179.61 82.58 0.38 41
10 12/26/2024 11:16:55 45.02, -17.49 72.96 12/26/2024 11:15:57 45.03, -17.42 73.04 5.78 58
11 12/26/2024 12:03:57 -53.39, 153.56 100.27 12/26/2024 12:04:15 -53.39, 153.56 100.28 0.22 18



Historial Predications of SNOs between TERRA and METOP-C
